Regional Weather Roundup
Issued by NWS Melbourne, FL

Home | Current Version | Previous Version | Text Only | Print | Product List | Glossary On
Versions: 1 2 3 4 5 6 7 8 9 10 11 12 13 14 15 16 17 18 19 20 21 22 23 24 25 26 27 28 29 30 31 32 33 34 35 36 37 38 39 40 41 42 43 44 45 46 47 48 49 50
000
ASUS42 KMLB 250512
RWRMLB
HOURLY WEATHER ROUNDUP AROUND FLORIDA
NATIONAL WEATHER SERVICE OFFICE MELBOURNE FL
100 AM EDT SUN AUG 25 2019

CITY           SKY/WX    TMP DP  RH WIND       PRES   REMARKS
MELBOURNE      FAIR      79  75  87 NW3       29.95F
FORT PIERCE    FAIR      77  74  90 CALM      29.94F
ORLANDO INTL   FAIR      78  75  90 N5        29.97F
DAYTONA BEACH  FAIR      80  77  90 NE6       29.97F
VERO BEACH     FAIR      77  76  96 N3        29.94F
$$
...ELSEWHERE ACROSS CENTRAL FLORIDA...

CITY           SKY/WX    TMP DP  RH WIND       PRES   REMARKS
PATRICK AFB    FAIR      81  77  88 N5        29.95F
KSC            CLEAR     77  75  93 N5          N/A
CAPE CANAVERAL FAIR      79  78  99 MISG      29.94F
ORLANDO EXEC   FAIR      81  74  79 N5        29.97F
LEESBURG       FAIR      79  75  87 N3        29.99F
SANFORD        FAIR      80  76  87 CALM      29.97F
DELAND         FAIR      77  75  94 NW6       29.97F
WINTER HAVEN   FAIR      81  75  82 NE3       29.98F
KISSIMMEE      FAIR      81  75  82 NE3       29.98F
OKEECHOBEE     FAIR      77  73  88 N3        29.94F
TAMPA          FAIR      84  73  69 NE3       29.97S
$$
...NORTHERN FLORIDA...

CITY           SKY/WX    TMP DP  RH WIND       PRES   REMARKS
PALM COAST     FAIR      77  75  93 CALM      29.98S
ST AUGUSTINE   FAIR      81  77  88 NE3       29.99F
OCALA          FAIR      78  75  90 CALM      29.99F
GAINESVILLE    FAIR      77  74  90 CALM      30.02F
JACKSONVILLE   FAIR      77  75  93 CALM      29.99F
TALLAHASSEE    FAIR      77  76  96 NW8       30.01S
$$
...ALONG THE SOUTHEAST COAST TO THE KEYS...

CITY           SKY/WX    TMP DP  RH WIND       PRES   REMARKS
STUART         FAIR      79  75  89 CALM      29.94F
WEST PALM BCH  FAIR      80  76  87 SE3       29.93F
MIAMI          FAIR      82  77  84 S5        29.93F
KEY WEST       FAIR      85  76  74 S6        29.94F
$$
...MARINE REPORTS...

STATION/POSITION TIME  TEMP    WIND        PRES    WAVE   SWELL
                       AIR SEA DIR/SP/G            HT/PER HT/PER
                 (UTC) (F)     (DEG/KT/KT) (MB)    (FT/S) (FT/S)
ST AUGUSTINE FP  0500   82 84   60/  6/  6 1015.5F
20NM E CAPE CANA 0450   82 83  250/  4/  4 1014.1F   2/ 7   2/ 7
TRIDENT PIER     0424   79 83  330/  2/  3 1015.8
SEBASTIAN INLET  0445   81 81  350/  5     1015.0S
4NM E PORT CANAV 0500      83                N/A     2/ 7
6NM NE FPR INLET 0430      84                N/A     2/ 7
SETTLEMENT PT GB 0500   84     190/  9/ 11 1013.7F
$$



USA.gov is the U.S. government's official web portal to all federal, state and local government web resources and services.